This demonstration page uses our WeatherBlox Daily Observations layout. Learn more.

Hourly Observations for October 13, 2015

Temp ( °F °C ) Dew Point ( °F °C ) Humidity (%) Winds ( mph kmh ) Pressure ( in mb ) Visibility ( mi km ) Precip ( " mm )
12:15 am 00:15 Clear 48 9 30 -1 50 50 W 7 11 30.03 1017 10 16.09344 0 0
12:35 am 00:35 Clear 48 9 30 -1 50 50 W 6 9 30.03 1017 10 16.09344 0 0
12:55 am 00:55 Clear 46 8 32 0 57 57 W 3 6 30.03 1017 10 16.09344 0 0
1:15 am 01:15 Clear 46 8 32 0 57 57 WNW 6 9 30.03 1017 10 16.09344 0 0
1:35 am 01:35 Clear 46 8 32 0 57 57 WNW 6 9 30.03 1017 10 16.09344 0 0
1:55 am 01:55 Clear 45 7 32 0 61 61 WNW 5 7 30.03 1017 10 16.09344 0 0
2:15 am 02:15 Clear 45 7 32 0 61 61 Calm 30.03 1017 10 16.09344 0 0
2:35 am 02:35 Clear 43 6 32 0 66 66 Calm 30.03 1017 10 16.09344 0 0
2:55 am 02:55 Clear 43 6 32 0 66 66 Calm 30.03 1017 10 16.09344 0 0
3:15 am 03:15 Clear 43 6 32 0 66 66 NW 3 6 30.03 1017 10 16.09344 0 0
3:35 am 03:35 Clear 41 5 32 0 70 70 WSW 3 6 30.06 1018 10 16.09344 0 0
3:55 am 03:55 Clear 41 5 32 0 70 70 Calm 30.06 1018 10 16.09344 0 0
4:15 am 04:15 Clear 41 5 34 1 76 76 SW 3 6 30.06 1018 10 16.09344 0 0
4:35 am 04:35 Clear 41 5 32 0 70 70 Calm 30.06 1018 10 16.09344 0 0
4:55 am 04:55 Clear 41 5 34 1 76 76 WSW 3 6 30.06 1018 10 16.09344 0 0
5:15 am 05:15 Clear 39 4 32 0 75 75 W 3 6 30.06 1018 10 16.09344 0 0
5:35 am 05:35 Clear 41 5 32 0 70 70 Calm 30.06 1018 10 16.09344 0 0
5:55 am 05:55 Clear 41 5 32 0 70 70 WSW 3 6 30.06 1018 10 16.09344 0 0
6:15 am 06:15 Clear 41 5 32 0 70 70 SW 5 7 30.06 1018 10 16.09344 0 0
6:35 am 06:35 Clear 41 5 32 0 70 70 WSW 3 6 30.06 1018 10 16.09344 0 0
6:55 am 06:55 Clear 41 5 32 0 70 70 Calm 30.06 1018 10 16.09344 0 0
7:15 am 07:15 Clear 41 5 32 0 70 70 Calm 30.06 1018 10 16.09344 0 0
7:35 am 07:35 Clear 43 6 32 0 66 66 SW 3 6 30.03 1017 10 16.09344 0 0
7:55 am 07:55 Sunny 39 4 32 0 75 75 Calm 30.06 1018 10 16.09344 0 0
8:15 am 08:15 Sunny 43 6 32 0 66 66 Calm 30.03 1017 10 16.09344 0 0
8:35 am 08:35 Sunny 45 7 36 2 71 71 Calm 30.03 1017 10 16.09344 0 0
8:55 am 08:55 Sunny 50 10 37 3 62 62 Calm 30 1016 10 16.09344 0 0
9:15 am 09:15 Sunny 55 13 34 1 44 44 Calm 30 1016 10 16.09344 0 0
9:35 am 09:35 Sunny 57 14 36 2 44 44 Calm 30 1016 10 16.09344 0 0
9:55 am 09:55 Sunny 61 16 32 0 34 34 SW 3 6 30 1016 10 16.09344 0 0
10:15 am 10:15 Sunny 66 19 30 -1 26 26 SW 6 9 29.97 1015 10 16.09344 0 0
10:35 am 10:35 Sunny 68 20 28 -2 23 23 SW 8 13 29.94 1014 10 16.09344 0 0
10:55 am 10:55 Sunny 70 21 28 -2 21 21 SW 5 7 29.94 1014 10 16.09344 0 0
11:15 am 11:15 Sunny 72 22 27 -3 19 19 WSW 7 11 29.94 1014 10 16.09344 0 0
11:35 am 11:35 Sunny 72 22 25 -4 17 17 WSW 7 11 29.94 1014 10 16.09344 0 0
11:55 am 11:55 Sunny 73 23 27 -3 17 17 WSW 6 9 29.94 1014 10 16.09344 0 0
12:15 pm 12:15 Sunny 75 24 27 -3 16 16 WSW 6 9 29.91 1013 10 16.09344 0 0
12:35 pm 12:35 Sunny 75 24 28 -2 18 18 WSW 6 9 29.91 1013 10 16.09344 0 0
12:55 pm 12:55 Sunny 77 25 27 -3 15 15 W 6 9 29.88 1012 10 16.09344 0 0
1:15 pm 13:15 Sunny 79 26 28 -2 16 16 W 8 13 29.88 1012 10 16.09344 0 0
1:35 pm 13:35 Sunny 79 26 28 -2 16 16 W 9 15 29.88 1012 10 16.09344 0 0
1:55 pm 13:55 Sunny 79 26 28 -2 16 16 WSW 6 9 29.88 1012 10 16.09344 0 0
2:15 pm 14:15 Sunny 81 27 28 -2 15 15 WNW 10 17 29.85 1011 10 16.09344 0 0
2:35 pm 14:35 Sunny 81 27 30 -1 16 16 W 9 15 29.85 1011 10 16.09344 0 0
2:55 pm 14:55 Sunny 82 28 30 -1 15 15 NNW 7 11 29.83 1010 10 16.09344 0 0
3:15 pm 15:15 Sunny 82 28 28 -2 14 14 WNW 14 22 29.83 1010 10 16.09344 0 0
3:35 pm 15:35 Sunny 82 28 28 -2 14 14 NNW 13 20 29.83 1010 10 16.09344 0 0
3:55 pm 15:55 Sunny 82 28 30 -1 15 15 NNW 9 15 29.83 1010 10 16.09344 0 0
4:15 pm 16:15 Sunny 82 28 30 -1 15 15 WNW 9 15 29.83 1010 10 16.09344 0 0
4:35 pm 16:35 Sunny 82 28 30 -1 15 15 NNW 13 20 29.83 1010 10 16.09344 0 0
4:55 pm 16:55 Sunny 82 28 30 -1 15 15 NW 14 22 29.83 1010 10 16.09344 0 0
5:15 pm 17:15 Sunny 82 28 28 -2 14 14 NNW 9 15 29.83 1010 10 16.09344 0 0
5:35 pm 17:35 Sunny 81 27 28 -2 15 15 NNW 10 17 29.83 1010 10 16.09344 0 0
5:55 pm 17:55 Sunny 81 27 28 -2 15 15 N 16 26 29.83 1010 10 16.09344 0 0
6:15 pm 18:15 Sunny 77 25 30 -1 18 18 N 9 15 29.85 1011 10 16.09344 0 0
6:35 pm 18:35 Sunny 75 24 32 0 21 21 N 7 11 29.88 1012 10 16.09344 0 0
6:55 pm 18:55 Sunny 68 20 32 0 26 26 N 6 9 29.91 1013 10 16.09344 0 0
7:15 pm 19:15 Clear 66 19 32 0 28 28 N 6 9 29.94 1014 10 16.09344 0 0
7:35 pm 19:35 Clear 61 16 34 1 36 36 NNE 6 9 29.94 1014 7 11.265408 0 0
7:55 pm 19:55 Clear 63 17 34 1 34 34 N 5 7 29.97 1015 10 16.09344 0 0
8:15 pm 20:15 Clear 61 16 34 1 36 36 NNE 3 6 30 1016 7 11.265408 0 0
8:35 pm 20:35 Clear 59 15 34 1 39 39 N 3 6 30 1016 10 16.09344 0 0
8:55 pm 20:55 Clear 55 13 36 2 47 47 N 3 6 30 1016 10 16.09344 0 0
9:15 pm 21:15 Clear 54 12 36 2 51 51 NNE 7 11 30.03 1017 10 16.09344 0 0
9:35 pm 21:35 Clear 54 12 36 2 51 51 NE 5 7 30.03 1017 10 16.09344 0 0
9:55 pm 21:55 Clear 54 12 37 3 54 54 NE 7 11 30.03 1017 10 16.09344 0 0
10:15 pm 22:15 Clear 54 12 37 3 54 54 NNE 8 13 30.03 1017 10 16.09344 0 0
10:35 pm 22:35 Clear 50 10 37 3 62 62 NE 7 11 30.03 1017 10 16.09344 0 0
10:55 pm 22:55 Clear 57 14 36 2 44 44 Calm 30.03 1017 10 16.09344 0 0
11:15 pm 23:15 Clear 52 11 36 2 54 54 NNE 5 7 30.06 1018 10 16.09344 0 0
11:35 pm 23:35 Clear 54 12 37 3 54 54 Calm 30.06 1018 10 16.09344 0 0
11:55 pm 23:55 Clear 52 11 37 3 58 58 Calm 30.06 1018 10 16.09344 0 0

Powered by AerisWeather